TimeMDT,TemperatureF,Dew PointF,Humidity,Sea Level PressureIn,VisibilityMPH,Wind Direction,Wind SpeedMPH,Gust SpeedMPH,PrecipitationIn,Events,Conditions,WindDirDegrees,DateUTC
12:14 AM,69.8,60.8,73,29.88,10.0,North,20.7,32.2,0.00,Rain-Thunderstorm,Light Thunderstorms and Rain,350,2013-07-08 06:14:00
12:27 AM,66.2,60.8,83,29.90,10.0,NNE,24.2,32.2,0.00,Rain-Thunderstorm,Light Thunderstorms and Rain,20,2013-07-08 06:27:00
12:53 AM,64.0,62.1,93,29.89,7.0,ENE,23.0,31.1,0.05,Rain-Thunderstorm,Light Thunderstorms and Rain,60,2013-07-08 06:53:00
1:00 AM,62.6,59.0,88,29.91,10.0,NE,17.3,-,0.00,Rain-Thunderstorm,Light Rain,50,2013-07-08 07:00:00
1:53 AM,63.0,59.0,87,29.89,10.0,East,12.7,-,0.00,Thunderstorm,Mostly Cloudy,80,2013-07-08 07:53:00
2:01 AM,62.6,59.0,88,29.92,10.0,East,13.8,-,N/A,,Mostly Cloudy,80,2013-07-08 08:01:00
2:53 AM,60.1,57.0,90,29.90,10.0,NNE,3.5,-,N/A,,Clear,20,2013-07-08 08:53:00
3:53 AM,59.0,55.9,90,29.90,10.0,NE,8.1,-,N/A,,Clear,40,2013-07-08 09:53:00
4:53 AM,59.0,55.9,90,29.91,10.0,ESE,4.6,-,N/A,,Clear,110,2013-07-08 10:53:00
5:53 AM,59.0,57.0,93,29.92,10.0,NW,4.6,-,N/A,,Clear,320,2013-07-08 11:53:00
6:53 AM,64.0,59.0,84,29.92,10.0,NE,3.5,-,N/A,,Clear,50,2013-07-08 12:53:00
7:53 AM,68.0,61.0,78,29.94,10.0,ENE,6.9,-,N/A,,Clear,70,2013-07-08 13:53:00
8:53 AM,72.0,63.0,73,29.94,10.0,ENE,6.9,-,N/A,,Partly Cloudy,60,2013-07-08 14:53:00
9:35 AM,73.4,62.6,69,29.99,10.0,ENE,4.6,-,N/A,,Mostly Cloudy,70,2013-07-08 15:35:00
9:53 AM,73.0,62.1,68,29.96,10.0,Variable,3.5,-,N/A,,Mostly Cloudy,0,2013-07-08 15:53:00
10:05 AM,73.4,62.6,69,29.99,10.0,Calm,Calm,-,N/A,,Scattered Clouds,0,2013-07-08 16:05:00
10:53 AM,75.9,63.0,64,29.94,10.0,NE,9.2,-,N/A,,Clear,40,2013-07-08 16:53:00
11:53 AM,80.1,64.0,58,29.92,10.0,NE,10.4,-,N/A,,Clear,50,2013-07-08 17:53:00
12:53 PM,82.0,64.0,54,29.91,10.0,ENE,12.7,19.6,N/A,,Scattered Clouds,70,2013-07-08 18:53:00
1:53 PM,79.0,61.0,54,29.96,10.0,NNW,10.4,-,N/A,Thunderstorm,Thunderstorm,330,2013-07-08 19:53:00
2:22 PM,77.0,66.2,69,29.93,10.0,NE,15.0,-,0.12,Rain,Light Rain,40,2013-07-08 20:22:00
2:53 PM,78.1,64.9,64,29.93,10.0,NNE,16.1,23.0,0.12,,Clear,30,2013-07-08 20:53:00
3:28 PM,75.2,64.4,69,29.99,10.0,North,12.7,-,N/A,Thunderstorm,Mostly Cloudy,350,2013-07-08 21:28:00
3:53 PM,69.1,61.0,75,29.96,6.0,NE,15.0,-,0.03,Rain-Thunderstorm,Thunderstorms and Rain,50,2013-07-08 21:53:00
4:20 PM,68.0,59.0,73,29.84,10.0,East,28.8,35.7,0.01,Rain,Light Rain,90,2013-07-08 22:20:00
4:30 PM,69.8,60.8,73,29.84,10.0,East,24.2,33.4,0.01,,Scattered Clouds,90,2013-07-08 22:30:00
4:53 PM,70.0,62.1,76,29.85,10.0,NE,11.5,-,0.01,,Clear,50,2013-07-08 22:53:00
5:53 PM,73.0,61.0,66,29.86,10.0,North,12.7,-,N/A,,Scattered Clouds,10,2013-07-08 23:53:00
6:51 PM,66.2,62.6,88,30.01,5.0,NW,12.7,23.0,0.03,Rain-Thunderstorm,Rain,320,2013-07-09 00:51:00
6:53 PM,66.9,62.1,84,30.01,5.0,NW,13.8,-,0.04,Rain-Thunderstorm,Rain,320,2013-07-09 00:53:00
7:04 PM,64.4,60.8,88,30.03,6.0,NW,13.8,23.0,0.02,Rain-Thunderstorm,Rain,310,2013-07-09 01:04:00
7:25 PM,64.4,60.8,88,30.04,4.0,NW,10.4,-,0.09,Rain,Light Rain,310,2013-07-09 01:25:00
7:53 PM,64.0,61.0,90,29.87,6.0,ENE,21.9,31.1,0.15,Rain,Light Rain,70,2013-07-09 01:53:00
8:05 PM,64.4,62.6,94,29.88,10.0,ENE,13.8,29.9,0.00,Rain,Light Rain,70,2013-07-09 02:05:00
8:53 PM,64.9,63.0,93,29.87,10.0,East,9.2,-,0.00,,Clear,90,2013-07-09 02:53:00
9:53 PM,64.0,60.1,87,29.94,10.0,Calm,Calm,-,N/A,,Clear,0,2013-07-09 03:53:00
10:53 PM,63.0,60.1,90,29.99,10.0,WNW,10.4,-,N/A,,Overcast,290,2013-07-09 04:53:00
11:53 PM,63.0,59.0,87,29.96,10.0,West,4.6,-,N/A,,Clear,280,2013-07-09 05:53:00